Wind_Speed
26 26 26 27 26 25 23 21 22 21 20 21 22 23 23 25 26 24 20 17 18 23 22 7 10 11 13 18 20 19 12 15 23 22 21 24 12 5 10 10 8 8 15 17 15
28 27 27 27 27 26 23 24 23 23 25 24 24 24 24 26 26 24 20 13 15 7 5 4 9 10 14 16 15 18 13 22 22 22 21 21 21 15 12 16 15 14 16 14 14
27 27 26 27 27 27 25 25 25 26 26 25 24 24 24 23 20 3 2 3 5 10 9 9 14 14 18 19 22 22 20 21 27 33 34 26 20 24 22 18 19 16 16 15 12
28 28 28 28 28 27 26 24 24 26 27 26 23 24 21 16 7 1 13 19 23 21 14 12 13 16 17 18 22 23 28 29 31 34 32 24 27 24 27 24 22 19 16 14 14
25 24 25 24 24 24 25 24 24 22 26 22 22 22 20 11 23 25 27 25 18 15 14 12 14 16 18 16 21 23 23 31 31 32 31 29 25 28 29 29 25 22 21 18 16
24 24 24 24 25 26 25 25 25 21 23 21 18 21 17 21 19 13 18 16 16 13 16 16 18 20 26 26 22 27 32 33 34 30 29 25 27 29 30 30 28 26 26 20 16
24 25 25 26 25 26 26 24 23 20 19 21 17 19 18 32 21 22 21 21 19 18 21 19 20 23 21 21 22 27 25 22 23 31 30 31 31 27 31 31 31 25 20 19 15
24 25 25 26 27 26 25 22 19 19 19 18 16 17 16 19 14 23 20 22 24 20 22 21 21 26 26 25 30 25 26 24 22 26 27 26 34 20 28 31 31 30 21 18 17
26 26 27 27 27 25 23 18 15 17 19 14 13 8 17 5 11 9 14 19 17 20 17 14 15 23 22 18 19 18 22 27 32 26 26 25 32 25 30 34 18 24 22 18 17
26 27 27 27 25 22 16 14 19 15 18 12 15 7 18 19 9 4 3 8 13 14 16 18 14 16 15 14 18 23 22 25 27 24 25 26 27 19 27 17 13 16 18 19 17
24 25 27 24 20 18 19 14 7 7 20 20 14 13 8 3 7 6 5 7 10 15 15 20 15 18 20 21 25 27 27 30 28 27 29 24 23 21 19 25 16 21 22 18 16
24 24 23 16 14 18 14 23 16 6 14 28 36 38 32 26 26 27 18 19 14 17 18 18 24 22 23 23 23 24 26 25 25 26 24 20 19 28 19 21 23 24 24 20 16
23 24 20 14 15 18 21 26 13 8 8 19 30 30 31 26 35 32 21 26 22 20 20 22 23 22 23 21 22 25 22 22 24 23 26 19 17 24 29 24 27 27 26 26 21
23 22 18 16 17 22 25 25 17 10 5 10 13 11 22 30 21 26 26 32 26 28 21 20 23 21 25 22 15 18 20 23 21 14 11 10 8 21 26 21 23 23 17 24 20
22 19 21 23 17 28 26 22 13 8 5 6 10 6 7 23 1 9 8 16 26 25 16 24 16 13 20 22 17 18 12 13 16 18 14 22 10 15 25 25 19 12 21 23 19
20 19 19 25 27 24 27 26 18 4 10 7 9 9 11 18 19 6 5 10 9 19 19 16 15 9 14 14 19 7 5 10 12 11 9 23 15 12 13 12 16 17 27 21 16
13 17 22 26 31 24 27 26 4 7 6 13 13 11 14 16 16 16 15 11 9 5 13 16 21 20 13 15 4 11 1 4 6 7 11 8 12 17 9 19 15 22 22 19 17
19 27 28 29 29 28 37 3 8 13 25 6 7 17 18 15 16 19 19 17 17 12 11 9 9 20 16 19 11 18 11 5 5 4 6 4 4 4 5 16 31 26 10 18 19
22 35 33 32 28 39 15 9 10 15 11 16 15 13 18 17 17 16 21 19 19 19 9 6 9 3 13 18 14 5 10 20 14 12 5 6 5 4 6 20 17 16 12 15 19
11 11 14 21 32 34 4 15 13 13 10 9 12 5 13 16 13 11 20 13 20 22 20 4 6 2 15 15 19 15 7 5 6 4 4 5 11 1 12 15 15 16 14 14 13
10 4 12 26 36 11 4 7 13 14 14 11 15 14 12 15 12 5 8 7 8 19 12 7 6 3 5 12 16 15 15 4 4 7 4 4 2 12 12 15 9 11 14 17 17
9 3 15 35 4 3 7 7 6 15 14 8 5 10 13 11 12 11 8 6 5 14 16 20 4 6 12 11 4 6 8 5 4 2 2 2 2 9 6 7 5 9 13 14 16
5 5 20 31 5 5 9 16 12 12 12 11 11 11 10 10 7 9 3 6 3 4 2 9 6 7 3 8 9 10 11 10 8 7 6 3 2 9 11 8 17 20 17 17 15
6 4 6 12 8 9 13 15 17 11 12 14 8 8 11 11 12 4 6 7 6 7 5 4 8 9 6 5 6 12 12 8 6 1 6 6 7 7 2 11 15 16 14 15 14
8 6 13 7 8 13 14 11 18 13 17 13 9 13 12 10 13 14 6 8 8 3 5 3 5 9 8 2 3 3 5 6 8 9 8 9 8 13 13 13 13 12 12 13 14
5 5 11 8 27 22 15 13 16 17 11 15 14 14 13 12 10 7 10 11 7 6 5 4 2 7 10 9 6 8 7 8 9 10 11 10 5 14 15 16 15 17 15 13 12
15 10 10 7 9 17 18 14 18 14 17 14 13 8 10 8 7 5 7 8 4 11 8 7 4 3 9 7 3 7 6 8 7 6 8 6 11 8 12 11 13 10 10 10 9
Wind_Direction
279 278 281 283 283 287 287 291 292 297 299 307 307 308 312 311 312 314 294 289 279 282 296 295 272 270 265 259 248 255 256 260 260 262 272 275 297 293 286 271 262 272 244 265 287
278 280 279 280 284 283 282 279 287 293 293 297 301 308 313 313 314 310 293 285 284 281 322 287 288 279 258 263 247 240 248 244 263 284 293 302 301 297 247 259 231 235 256 249 255
279 280 280 282 283 283 279 276 277 286 288 293 295 302 311 324 322 65 307 351 336 332 308 281 278 278 270 264 257 249 246 261 274 290 303 304 290 290 287 270 258 267 261 260 253
278 280 281 283 284 284 283 277 274 274 281 286 298 298 308 310 285 214 300 297 299 304 293 283 271 271 269 262 260 262 260 264 276 283 287 290 296 272 272 276 274 267 269 268 262
277 278 281 281 284 284 289 284 276 271 285 286 290 303 307 260 251 274 286 291 287 280 260 255 260 268 268 267 273 268 276 268 268 276 272 286 269 277 268 275 269 259 257 249 240
279 280 280 281 281 283 282 283 278 271 279 288 294 304 298 264 281 273 270 256 269 253 252 254 258 267 271 274 274 281 283 283 284 288 286 280 274 269 264 268 264 261 253 244 223
281 282 283 282 281 281 280 283 273 270 273 281 296 297 272 254 263 251 256 259 255 258 260 260 268 269 279 286 278 271 265 274 266 271 269 269 272 255 267 260 260 245 240 235 226
282 282 282 282 283 283 281 283 259 264 260 280 289 297 269 283 260 263 266 257 251 255 258 266 267 274 274 275 279 274 275 276 267 270 265 243 262 257 266 247 240 247 240 223 224
285 284 283 284 283 281 284 276 246 258 251 275 286 268 275 290 233 268 254 247 249 245 253 258 264 261 266 264 270 254 264 267 279 270 269 249 255 249 252 261 242 225 234 220 202
286 285 285 286 281 278 273 216 233 253 241 258 253 268 253 249 237 214 231 245 240 243 247 235 246 243 241 244 258 271 268 272 271 273 270 260 265 261 245 241 210 242 222 206 214
281 284 288 284 275 251 229 201 197 247 224 215 219 217 172 212 156 212 260 245 240 240 242 226 234 241 251 250 260 268 270 280 281 287 298 293 312 252 231 249 211 213 229 219 204
281 281 282 270 255 240 244 205 209 310 274 248 245 252 250 266 273 261 258 247 226 243 241 247 245 251 256 267 276 278 273 275 272 285 282 313 306 294 259 262 220 223 225 210 187
277 278 264 244 246 235 237 219 221 227 273 277 239 243 241 236 251 258 243 236 238 245 253 246 264 277 249 254 265 270 267 277 280 301 302 302 280 275 280 262 258 232 232 198 146
274 270 243 228 226 226 211 205 200 228 285 271 209 249 221 224 258 258 239 239 243 250 244 263 278 271 274 238 251 273 259 270 280 284 271 321 284 270 278 268 237 225 204 125 117
269 254 233 226 218 201 203 178 196 169 269 264 194 159 159 183 246 164 196 223 239 244 226 247 265 271 265 272 277 266 342 298 276 272 284 267 263 269 252 254 251 147 124 107 99
266 241 227 213 220 209 195 173 166 141 235 255 155 181 190 209 228 223 186 226 296 241 244 269 291 261 265 278 269 151 308 301 276 259 247 253 237 277 286 249 157 138 107 116 119
251 234 217 214 208 201 191 156 143 207 207 242 224 194 216 219 218 233 243 202 204 193 236 252 237 237 247 270 196 167 160 247 224 215 248 244 236 249 317 352 148 100 134 127 105
216 207 209 207 214 195 162 138 225 233 231 162 300 225 226 218 232 214 223 235 208 220 278 274 258 225 209 225 212 201 194 222 247 249 277 180 249 224 34 86 70 93 81 100 91
211 189 199 198 193 175 170 199 205 236 260 256 234 249 245 225 233 236 234 232 214 206 205 261 250 273 190 214 196 197 215 234 275 286 281 205 210 201 177 104 106 112 112 82 77
183 191 194 196 183 174 228 217 231 231 275 204 202 239 247 249 261 265 248 228 234 194 213 256 274 245 227 199 205 208 175 207 210 263 256 237 204 74 175 141 130 125 100 76 64
216 194 189 174 172 176 221 222 227 228 212 243 220 221 235 263 253 257 271 295 282 187 212 203 238 305 146 217 230 207 222 195 274 243 265 318 78 38 49 56 81 93 66 56 44
202 226 193 172 155 227 213 207 222 231 215 235 278 260 254 251 259 243 227 320 49 169 185 213 235 239 234 234 259 242 231 191 247 310 227 357 349 114 109 163 142 97 70 61 47
218 135 181 182 201 198 242 231 249 234 215 218 230 242 242 239 251 264 234 198 275 263 174 146 234 238 262 254 222 218 224 221 212 218 269 299 301 169 227 157 57 67 63 58 37
195 150 172 210 241 227 209 236 221 227 235 228 233 237 236 230 234 245 181 190 198 234 51 173 234 224 246 305 316 216 235 236 231 221 306 297 76 144 314 33 59 57 53 53 34
206 211 188 181 218 240 219 220 224 214 214 220 225 221 221 226 232 228 184 161 190 132 183 192 243 246 249 223 312 312 280 242 254 269 260 292 317 56 37 51 53 55 52 40 27
201 239 192 225 203 209 229 222 216 216 212 212 213 210 216 225 220 229 167 185 171 174 159 172 245 243 250 245 256 274 266 269 279 283 287 283 287 72 55 55 45 38 45 38 22
211 259 284 239 202 192 222 230 229 225 211 230 218 203 220 182 256 280 228 164 171 156 194 178 211 212 242 214 271 274 279 278 299 316 322 269 54 46 64 58 44 45 47 43 30
Height
1516 1515 1515 1515 1514 1514 1513 1513 1513 1513 1511 1510 1509 1509 1507 1503 1502 1500 1497 1499 1497 1493 1494 1491 1494 1493 1493 1491 1491 1489 1486 1483 1472 1463 1454 1447 1445 1450 1454 1454 1458 1459 1462 1463 1462
1511 1511 1510 1509 1511 1510 1509 1509 1510 1509 1509 1507 1506 1506 1505 1501 1499 1494 1493 1492 1493 1492 1491 1493 1493 1492 1490 1489 1487 1484 1479 1469 1464 1457 1452 1448 1449 1448 1452 1453 1455 1457 1458 1459 1462
1506 1505 1505 1505 1505 1506 1504 1503 1505 1505 1506 1504 1504 1503 1504 1502 1497 1489 1490 1490 1492 1492 1491 1493 1492 1491 1487 1485 1482 1477 1472 1470 1464 1459 1457 1454 1452 1453 1450 1448 1450 1452 1454 1455 1456
1500 1500 1500 1499 1500 1501 1499 1499 1499 1500 1500 1501 1501 1500 1500 1502 1498 1488 1487 1489 1489 1490 1489 1491 1489 1488 1484 1480 1477 1474 1468 1467 1465 1464 1460 1455 1453 1451 1452 1448 1449 1449 1450 1451 1453
1494 1494 1494 1494 1495 1496 1496 1494 1495 1494 1495 1496 1498 1497 1497 1496 1488 1488 1484 1485 1485 1485 1485 1487 1488 1485 1480 1476 1473 1467 1463 1460 1459 1458 1456 1455 1452 1449 1445 1449 1447 1447 1448 1448 1449
1490 1490 1489 1489 1490 1490 1491 1490 1491 1490 1491 1492 1493 1494 1493 1489 1481 1483 1480 1482 1482 1483 1484 1484 1484 1482 1477 1474 1473 1469 1464 1460 1458 1454 1453 1452 1445 1447 1441 1445 1443 1443 1443 1443 1445
1485 1485 1485 1485 1485 1485 1486 1486 1486 1487 1488 1488 1491 1490 1485 1474 1476 1477 1479 1478 1479 1480 1481 1481 1482 1481 1477 1470 1468 1464 1459 1454 1453 1453 1447 1452 1435 1435 1439 1440 1437 1437 1438 1440 1442
1480 1479 1479 1480 1480 1480 1480 1481 1482 1484 1484 1487 1488 1487 1474 1468 1470 1469 1472 1472 1474 1475 1477 1478 1479 1475 1475 1473 1467 1466 1462 1456 1442 1443 1435 1445 1423 1430 1429 1428 1428 1432 1433 1435 1439
1474 1473 1473 1474 1474 1474 1476 1476 1478 1481 1483 1484 1486 1485 1469 1463 1464 1463 1466 1468 1469 1471 1472 1475 1476 1473 1474 1472 1464 1460 1456 1453 1433 1436 1429 1427 1416 1417 1423 1421 1420 1423 1428 1431 1436
1468 1468 1466 1468 1468 1469 1471 1473 1475 1478 1480 1483 1483 1487 1464 1459 1459 1462 1464 1466 1467 1467 1468 1472 1471 1465 1466 1470 1463 1456 1448 1435 1429 1427 1422 1415 1409 1409 1414 1411 1418 1421 1425 1428 1432
1463 1463 1462 1461 1463 1463 1466 1474 1480 1479 1472 1466 1462 1457 1455 1455 1455 1460 1463 1465 1466 1466 1464 1464 1464 1457 1455 1451 1449 1446 1444 1441 1430 1426 1426 1420 1427 1408 1409 1411 1412 1421 1421 1423 1428
1456 1458 1458 1458 1457 1460 1465 1467 1467 1470 1462 1454 1453 1452 1453 1453 1450 1452 1460 1460 1461 1459 1460 1459 1446 1448 1447 1447 1447 1447 1446 1444 1440 1434 1431 1425 1428 1425 1405 1405 1405 1412 1415 1418 1424
1449 1453 1453 1456 1455 1457 1459 1463 1466 1470 1465 1443 1441 1438 1442 1450 1441 1442 1451 1451 1450 1450 1451 1448 1441 1441 1439 1445 1449 1445 1443 1449 1447 1440 1436 1432 1432 1420 1407 1401 1401 1402 1407 1410 1417
1444 1446 1448 1452 1455 1454 1456 1459 1465 1472 1469 1431 1426 1423 1430 1437 1434 1435 1438 1444 1443 1438 1442 1440 1437 1437 1435 1435 1443 1447 1446 1446 1448 1453 1454 1443 1436 1420 1407 1397 1394 1395 1403 1408 1419
1438 1439 1442 1444 1444 1447 1452 1457 1464 1471 1465 1413 1412 1419 1423 1428 1425 1425 1432 1437 1434 1435 1440 1432 1437 1439 1438 1432 1434 1443 1456 1456 1458 1457 1451 1437 1441 1406 1399 1395 1393 1394 1404 1417 1425
1430 1433 1436 1438 1441 1445 1450 1457 1463 1471 1452 1419 1412 1417 1421 1424 1424 1424 1430 1433 1434 1433 1434 1436 1444 1446 1441 1440 1441 1451 1460 1457 1457 1455 1449 1424 1434 1415 1404 1386 1380 1392 1408 1423 1431
1425 1429 1431 1433 1434 1442 1447 1454 1461 1451 1418 1412 1407 1410 1416 1416 1420 1423 1423 1428 1434 1443 1440 1434 1436 1437 1441 1442 1440 1450 1463 1456 1452 1446 1423 1409 1424 1419 1401 1398 1378 1404 1420 1426 1429
1421 1423 1425 1430 1433 1438 1441 1447 1438 1416 1419 1401 1404 1400 1408 1410 1410 1413 1417 1419 1425 1432 1430 1432 1429 1425 1430 1434 1436 1441 1453 1444 1441 1432 1420 1411 1428 1419 1412 1405 1403 1417 1423 1428 1429
1421 1418 1422 1425 1430 1433 1436 1433 1423 1412 1401 1403 1404 1407 1402 1401 1405 1406 1409 1409 1409 1427 1439 1424 1419 1412 1419 1427 1432 1442 1449 1435 1441 1438 1436 1420 1413 1415 1410 1406 1417 1426 1432 1433 1430
1420 1421 1420 1422 1425 1432 1432 1418 1413 1410 1410 1410 1411 1417 1409 1403 1405 1412 1403 1397 1402 1413 1420 1430 1425 1418 1419 1425 1427 1426 1429 1444 1448 1437 1427 1399 1402 1414 1410 1414 1419 1428 1435 1437 1440
1420 1421 1420 1421 1423 1431 1421 1414 1413 1408 1410 1411 1408 1408 1411 1409 1404 1415 1416 1400 1399 1405 1415 1429 1422 1423 1424 1419 1412 1418 1420 1437 1439 1422 1424 1411 1420 1423 1422 1423 1424 1426 1430 1432 1436
1418 1418 1417 1420 1427 1425 1416 1408 1408 1406 1404 1406 1408 1404 1403 1406 1405 1401 1411 1408 1406 1410 1417 1419 1418 1422 1418 1409 1411 1410 1416 1431 1432 1429 1428 1425 1422 1432 1436 1430 1425 1425 1432 1437 1441
1415 1413 1417 1418 1414 1416 1412 1405 1407 1401 1401 1404 1405 1405 1405 1408 1412 1407 1406 1419 1416 1413 1414 1416 1420 1423 1425 1419 1412 1413 1413 1412 1420 1419 1422 1426 1421 1432 1430 1424 1428 1432 1435 1440 1445
1411 1408 1415 1414 1412 1407 1407 1404 1402 1399 1400 1402 1404 1407 1404 1406 1406 1408 1411 1417 1416 1415 1418 1416 1415 1416 1420 1423 1409 1409 1408 1409 1414 1428 1420 1419 1422 1429 1428 1428 1434 1438 1441 1445 1449
1403 1398 1397 1404 1407 1406 1401 1396 1397 1397 1397 1401 1404 1403 1403 1406 1404 1406 1410 1415 1417 1420 1418 1417 1419 1413 1412 1412 1411 1409 1408 1408 1413 1414 1421 1419 1418 1430 1434 1437 1442 1443 1444 1448 1449
1396 1393 1390 1385 1395 1405 1398 1392 1388 1391 1394 1397 1399 1399 1403 1403 1403 1406 1410 1411 1415 1420 1418 1421 1424 1420 1419 1413 1414 1415 1411 1411 1411 1412 1414 1416 1421 1438 1444 1446 1447 1446 1449 1452 1454
1393 1391 1388 1382 1390 1393 1389 1390 1389 1387 1392 1390 1394 1397 1399 1403 1409 1407 1408 1409 1410 1418 1422 1422 1423 1422 1419 1413 1417 1420 1415 1412 1412 1412 1415 1420 1434 1440 1448 1453 1456 1457 1458 1459 1461